Regional Weather Roundup
Issued by NWS Goodland, KS

Home | Current Version | Previous Version | Text Only | Print | Product List | Glossary Off
Versions: 1 2 3 4 5 6 7 8 9 10 11 12 13 14 15 16 17 18 19 20 21 22 23 24 25 26 27 28 29 30 31 32 33 34 35 36 37 38 39 40 41 42 43 44 45 46 47 48 49 50

000
ASUS43 KGLD 271908
RWRGLD

GOODLAND FORECAST AREA HOURLY WEATHER ROUNDUP
NATIONAL WEATHER SERVICE GOODLAND KS
1200 PM MST SAT DEC 27 2014

...OFFICIAL OBSERVATIONS...

CITY           SKY/WX    TMP DP  RH WIND       PRES   REMARKS
GOODLAND KS    SUNNY     24  15  68 NW15      30.19F WCI  11
HILL CITY KS   SUNNY     25  16  68 NW7       30.27F
IMPERIAL NEB   SUNNY     20  10  65 W9        30.19F
MCCOOK NEB     SUNNY     22  14  71 W12       30.22F WCI  10
AKRON CO       SUNNY     17  11  77 W5        30.13F
BURLINGTON CO  SUNNY     24  13  62 NW16      30.17F WCI  11
LIMON CO       SUNNY     22   8  55 NW6       30.13F
$$

...UNOFFICIAL OBSERVATIONS...

CITY           SKY/WX    TMP DP  RH WIND       PRES   REMARKS
COLBY KS       SUNNY     25  19  80 W10       30.21F WCI  15
NORTON KS      SUNNY     28  16  59 NW7       30.22F
SHARON SPRINGS   N/A     28  23  81 NW8         N/A
TRIBUNE KS     SUNNY     30  21  69 W10       30.24F
KIT CARSON CO    N/A     31  16  53 MISG        N/A
YUMA CO          N/A     21  13  71 W9          N/A
$$



USA.gov is the U.S. government's official web portal to all federal, state and local government web resources and services.